Location: Asheville, NC
(35.6000°N, 82.5500°W)
Time: 14:56:47
(UTC-05:00)

Vanguard 1 - Pass Details

Date: 09 December 2017
Orbit: 649 x 3834 km, 34.3° (Epoch: 17 January)

Event Time Altitude Azimuth Distance (km) Brightness Sun altitude
Rises 06:29:30 0° 188° (S) 7,852 14.8 -11.8°
Reaches altitude 10° 06:38:09 10° 172° (S) 6,929 14.8 -10.1°
Maximum altitude 06:50:48 18° 138° (SE) 5,993 15.1 -7.7°
Drops below altitude 10° 07:01:45 10° 104° (ESE) 6,016 15.8 -5.7°
Sets 07:08:03 0° 87° (E) 6,503 15.5 -4.5°
